This demonstration page uses our WeatherBlox Daily Observations layout. Learn more.

Left ArrowRight Arrow

Hourly Observations for August 12, 2016

Temp ( °F °C ) Dew Point ( °F °C ) Humidity (%) Winds ( mph kmh ) Pressure ( in mb ) Visibility ( mi km ) Precip ( " mm )
12:15 am 00:15 Partly Cloudy 81 27 75 24 84 84 SSW 10 17 30.03 1017 10 16 0.00 0.00
12:35 am 00:35 Mostly Cloudy 81 27 77 25 89 89 S 7 11 30.03 1017 10 16 0.00 0.00
12:55 am 00:55 Cloudy 81 27 77 25 89 89 S 9 15 30.00 1016 10 16 0.00 0.00
1:15 am 01:15 Cloudy 81 27 77 25 89 89 SSW 13 20 30.00 1016 10 16 0.00 0.00
1:35 am 01:35 Cloudy 81 27 77 25 89 89 SSW 13 20 30.00 1016 10 16 0.00 0.00
1:55 am 01:55 Cloudy 81 27 77 25 89 89 SSW 12 19 30.00 1016 10 16 0.00 0.00
2:15 am 02:15 Cloudy 81 27 77 25 89 89 SSW 12 19 30.00 1016 10 16 0.00 0.00
2:35 am 02:35 Cloudy 81 27 77 25 89 89 SSW 12 19 30.00 1016 10 16 0.00 0.00
2:55 am 02:55 Cloudy 79 26 77 25 94 94 SSW 12 19 30.00 1016 10 16 0.00 0.00
3:15 am 03:15 Cloudy 79 26 77 25 94 94 SSW 9 15 30.00 1016 10 16 0.00 0.00
3:35 am 03:35 Cloudy 79 26 77 25 94 94 SSW 10 17 30.00 1016 10 16 0.00 0.00
3:55 am 03:55 Cloudy 79 26 77 25 94 94 SSW 12 19 30.00 1016 10 16 0.00 0.00
4:15 am 04:15 Cloudy 79 26 77 25 94 94 SSW 12 19 30.00 1016 10 16 0.00 0.00
4:35 am 04:35 Mostly Cloudy 79 26 77 25 94 94 SSW 10 17 30.00 1016 10 16 0.00 0.00
4:55 am 04:55 Mostly Cloudy 79 26 77 25 94 94 SSW 8 13 30.00 1016 10 16 0.00 0.00
5:15 am 05:15 Mostly Cloudy 79 26 77 25 94 94 S 6 9 30.00 1016 10 16 0.00 0.00
5:35 am 05:35 Cloudy 81 27 77 25 89 89 S 6 9 30.00 1016 10 16 0.00 0.00
5:55 am 05:55 Mostly Cloudy 79 26 77 25 94 94 SSW 12 19 30.00 1016 10 16 0.00 0.00
6:15 am 06:15 Partly Cloudy 79 26 77 25 94 94 SSW 12 19 30.00 1016 10 16 0.00 0.00
6:35 am 06:35 Cloudy 79 26 77 25 94 94 SW 8 13 30.00 1016 10 16 0.00 0.00
6:55 am 06:55 Partly Cloudy 79 26 75 24 89 89 SSW 8 13 30.00 1016 10 16 0.00 0.00
7:15 am 07:15 Sunny 79 26 75 24 89 89 SSW 8 13 30.00 1016 10 16 0.00 0.00
7:35 am 07:35 Sunny 79 26 77 25 94 94 SSW 12 19 30.00 1016 10 16 0.00 0.00
7:55 am 07:55 Sunny 81 27 77 25 89 89 SSW 9 15 30.00 1016 10 16 0.00 0.00
8:15 am 08:15 Sunny 82 28 77 25 84 84 S 10 17 30.00 1016 10 16 0.00 0.00
8:35 am 08:35 Sunny 82 28 77 25 84 84 S 7 11 30.00 1016 10 16 0.00 0.00
8:55 am 08:55 Sunny 84 29 77 25 79 79 S 7 11 30.00 1016 10 16 0.00 0.00
9:15 am 09:15 Sunny 86 30 77 25 75 75 SW 5 7 30.03 1017 10 16 0.00 0.00
9:35 am 09:35 Sunny 88 31 77 25 70 70 WSW 3 6 30.00 1016 10 16 0.00 0.00
9:55 am 09:55 Sunny 88 31 77 25 70 70 W 5 7 30.00 1016 10 16 0.00 0.00
10:15 am 10:15 Sunny 90 32 77 25 67 67 W 6 9 30.00 1016 10 16 0.00 0.00
10:35 am 10:35 Sunny 91 33 77 25 63 63 SSW 7 11 29.97 1015 10 16 0.00 0.00
10:55 am 10:55 Sunny 91 33 77 25 63 63 Calm 29.97 1015 10 16 0.00 0.00
11:15 am 11:15 Sunny 91 33 77 25 63 63 SSW 7 11 29.97 1015 10 16 0.00 0.00
11:35 am 11:35 Sunny 91 33 77 25 63 63 WSW 3 6 29.94 1014 10 16 0.00 0.00
11:55 am 11:55 Sunny 95 35 77 25 56 56 W 3 6 29.94 1014 10 16 0.00 0.00
12:15 pm 12:15 Sunny 95 35 77 25 56 56 SSW 5 7 29.94 1014 10 16 0.00 0.00
12:35 pm 12:35 Sunny 95 35 77 25 56 56 W 7 11 29.94 1014 10 16 0.00 0.00
12:55 pm 12:55 Partly Cloudy 95 35 77 25 56 56 W 6 9 29.94 1014 10 16 0.00 0.00
1:15 pm 13:15 Partly Cloudy 97 36 77 25 53 53 SSW 3 6 29.94 1014 10 16 0.00 0.00
1:35 pm 13:35 Partly Cloudy 97 36 79 26 56 56 SSW 9 15 29.94 1014 10 16 0.00 0.00
1:55 pm 13:55 Mostly Cloudy 97 36 79 26 56 56 W 6 9 29.91 1013 10 16 0.00 0.00
2:15 pm 14:15 Partly Cloudy 97 36 77 25 53 53 SW 7 11 29.91 1013 10 16 0.00 0.00
2:35 pm 14:35 Sunny 97 36 77 25 53 53 WSW 7 11 29.91 1013 10 16 0.00 0.00
2:55 pm 14:55 Partly Cloudy 97 36 77 25 53 53 SSW 6 9 29.91 1013 10 16 0.00 0.00
3:15 pm 15:15 Partly Cloudy 99 37 77 25 50 50 SW 9 15 29.91 1013 10 16 0.00 0.00
3:35 pm 15:35 Sunny 97 36 77 25 53 53 SW 6 9 29.88 1012 10 16 0.00 0.00
3:55 pm 15:55 Partly Cloudy 99 37 77 25 50 50 SW 8 13 29.88 1012 10 16 0.00 0.00
4:15 pm 16:15 Partly Cloudy 99 37 77 25 50 50 SW 9 15 29.88 1012 10 16 0.00 0.00
4:35 pm 16:35 Partly Cloudy 99 37 77 25 50 50 SW 8 13 29.88 1012 10 16 0.00 0.00
4:55 pm 16:55 Partly Cloudy 99 37 77 25 50 50 S 13 20 29.88 1012 10 16 0.00 0.00
5:15 pm 17:15 Partly Cloudy 97 36 77 25 53 53 SSW 12 19 29.88 1012 10 16 0.00 0.00
5:35 pm 17:35 Sunny 97 36 77 25 53 53 SW 9 15 29.88 1012 10 16 0.00 0.00
5:55 pm 17:55 Mostly Cloudy 95 35 77 25 56 56 WSW 10 17 29.88 1012 10 16 0.00 0.00
6:15 pm 18:15 Partly Cloudy 95 35 77 25 56 56 SW 8 13 29.88 1012 10 16 0.00 0.00
6:35 pm 18:35 Partly Cloudy 95 35 77 25 56 56 SSW 8 13 29.88 1012 10 16 0.00 0.00
6:55 pm 18:55 Sunny 91 33 77 25 63 63 SW 8 13 29.88 1012 10 16 0.00 0.00
7:15 pm 19:15 Partly Cloudy 91 33 77 25 63 63 SSW 7 11 29.88 1012 10 16 0.00 0.00
7:35 pm 19:35 Sunny 90 32 77 25 67 67 SSW 7 11 29.88 1012 10 16 0.00 0.00
7:55 pm 19:55 Sunny with Nearby Thunderstorms 90 32 77 25 67 67 SW 6 9 29.88 1012 10 16 0.00 0.00
8:15 pm 20:15 Clear 90 32 77 25 67 67 S 3 6 29.88 1012 10 16 0.00 0.00
8:35 pm 20:35 Clear 88 31 77 25 70 70 Calm 29.91 1013 10 16 0.00 0.00
8:55 pm 20:55 Partly Cloudy with Light Rain 88 31 79 26 75 75 S 3 6 29.91 1013 10 16 0.00 0.00
9:15 pm 21:15 Partly Cloudy 86 30 79 26 79 79 Calm 29.91 1013 10 16 0.00 0.00
9:35 pm 21:35 Partly Cloudy 88 31 79 26 75 75 Calm 29.94 1014 10 16 0.00 0.00
9:55 pm 21:55 Clear 88 31 79 26 75 75 Calm 29.94 1014 10 16 0.00 0.00
10:15 pm 22:15 Clear 86 30 79 26 79 79 Calm 29.94 1014 10 16 0.00 0.00
10:35 pm 22:35 Clear 86 30 79 26 79 79 S 3 6 29.94 1014 10 16 0.00 0.00
10:55 pm 22:55 Partly Cloudy 86 30 79 26 79 79 W 3 6 29.94 1014 10 16 0.00 0.00
11:15 pm 23:15 Partly Cloudy 84 29 79 26 84 84 SSW 5 7 29.97 1015 10 16 0.00 0.00
11:35 pm 23:35 Clear 84 29 79 26 84 84 SSW 3 6 29.97 1015 10 16 0.00 0.00
11:55 pm 23:55 Mostly Cloudy 84 29 79 26 84 84 SSW 3 6 29.97 1015 10 16 0.00 0.00

Powered by AerisWeather